Date String (YYYY-MM-DD hh:mm:ss) UTC,Instrument flags,Ambient pressure (hPa),Sample flow (lpm),Bypass flow (lpm),Sample temperature (°C),Ambient temperature (°C),ASC tube jacket temperature (°C),LED temperature (°C),Box temperature (°C),Sample RH (%),Span deviation,Mass concentration (μg/m³),Mass concentration (μg/m³),Mass concentration (μg/m³)
DateTimeUTC,F1_M11,P_M11,Q1_M11,Q2_M11,T1_M11,T2_M11,T3_M11,T4_M11,T5_M11,U1_M11,ZSPAN_M11,X0_M11,X2_M11,X1_M11
2022-06-06 10:00:00,,0821.2,5.00,0.00,30.3,29.3,00.0,39.2,32.1,20.8,0000.0,0010.70,0004.17,0002.84
2022-06-06 10:01:00,,0821.2,4.99,0.00,30.3,29.3,00.0,39.2,32.1,20.7,0000.0,0011.11,0004.17,0002.78
2022-06-06 10:02:00,,0821.2,5.00,0.00,30.3,29.3,00.0,39.2,32.1,21.8,0000.0,0011.21,0004.13,0002.74
2022-06-06 10:03:00,,0821.2,5.00,0.00,30.3,29.3,00.0,39.2,32.1,22.8,0000.0,0011.32,0004.14,0002.73
2022-06-06 10:04:00,,0821.2,5.02,0.00,30.3,29.3,00.0,39.2,32.1,22.9,0000.0,0011.10,0004.13,0002.73
2022-06-06 10:05:00,,0821.2,5.00,0.00,30.3,29.3,00.0,39.2,32.2,23.0,0000.0,0011.06,0004.15,0002.73
2022-06-06 10:06:00,,0821.2,4.99,0.00,30.3,29.3,00.0,39.2,32.2,22.9,0000.0,0010.83,0004.18,0002.73
2022-06-06 10:07:00,,0821.2,5.01,0.00,30.3,29.3,00.0,39.2,32.2,22.7,0000.0,0010.76,0004.16,0002.72
2022-06-06 10:08:00,,0821.2,4.99,0.00,30.3,29.3,00.0,39.2,32.2,22.8,0000.0,0010.44,0004.11,0002.72
2022-06-06 10:09:00,,0821.2,5.00,0.00,30.3,29.3,00.0,39.2,32.2,23.1,0000.0,0009.87,0004.12,0002.73
2022-06-06 10:10:00,,0821.2,5.01,0.00,30.3,29.3,00.0,39.2,32.2,23.3,0000.0,0009.85,0004.13,0002.76
2022-06-06 10:11:00,,0821.2,5.00,0.00,30.3,29.3,00.0,39.3,32.2,23.4,0000.0,0009.74,0004.10,0002.80
2022-06-06 10:12:00,,0821.2,5.00,0.00,30.4,29.3,00.0,39.3,32.2,22.8,0000.0,0009.41,0004.08,0002.85
2022-06-06 10:13:00,,0821.3,4.99,0.00,30.4,29.3,00.0,39.3,32.2,22.8,0000.0,0009.22,0004.13,0002.88
2022-06-06 10:14:00,,0821.3,5.01,0.00,30.4,29.3,00.0,39.3,32.2,23.3,0000.0,0009.10,0004.16,0002.89
2022-06-06 10:15:00,,0821.3,5.00,0.00,30.4,29.3,00.0,39.3,32.2,23.0,0000.0,0009.17,0004.18,0002.89
2022-06-06 10:16:00,,0821.4,5.00,0.00,30.4,29.3,00.0,39.3,32.2,23.0,0000.0,0009.69,0004.17,0002.87
2022-06-06 10:17:00,,0821.4,5.00,0.00,30.4,29.3,00.0,39.3,32.2,22.9,0000.0,0010.04,0004.14,0002.87
2022-06-06 10:18:00,,0821.4,5.00,0.00,30.4,29.3,00.0,39.3,32.2,23.0,0000.0,0010.05,0004.14,0002.88
2022-06-06 10:19:00,,0821.3,5.00,0.00,30.4,29.3,00.0,39.3,32.2,23.0,0000.0,0010.19,0004.15,0002.90
2022-06-06 10:20:00,,0821.3,5.01,0.00,30.4,29.3,00.0,39.3,32.2,23.0,0000.0,0010.15,0004.16,0002.92
2022-06-06 10:21:00,,0821.3,4.99,0.00,30.4,29.3,00.0,39.3,32.2,23.0,0000.0,0010.12,0004.16,0002.92
2022-06-06 10:22:00,,0821.3,5.00,0.00,30.4,29.3,00.0,39.3,32.2,23.0,0000.0,0010.01,0004.16,0002.93
2022-06-06 10:23:00,,0821.3,5.00,0.00,30.4,29.3,00.0,39.3,32.2,23.0,0000.0,0009.77,0004.15,0002.95
2022-06-06 10:24:00,,0821.3,5.00,0.00,30.4,29.3,00.0,39.3,32.2,22.9,0000.0,0009.75,0004.10,0002.97
2022-06-06 10:25:00,,0821.3,5.03,0.00,30.4,29.3,00.0,39.3,32.2,22.8,0000.0,0009.60,0004.03,0002.97
2022-06-06 10:26:00,,0821.3,5.00,0.00,30.4,29.3,00.0,39.3,32.2,22.7,0000.0,0009.60,0004.03,0002.98
2022-06-06 10:27:00,,0821.3,5.00,0.00,30.4,29.3,00.0,39.3,32.2,22.7,0000.0,0009.29,0004.07,0003.01
2022-06-06 10:28:00,,0821.3,5.00,0.00,30.4,29.3,00.0,39.3,32.2,22.7,0000.0,0009.03,0004.10,0003.01
2022-06-06 10:29:00,,0821.3,5.02,0.00,30.4,29.3,00.0,39.3,32.2,22.6,0000.0,0009.14,0004.14,0003.01
2022-06-06 10:30:00,,0821.2,4.99,0.00,30.4,29.3,00.0,39.3,32.2,22.4,0000.0,0009.17,0004.14,0002.99
2022-06-06 10:31:00,,0821.3,5.00,0.00,30.4,29.3,00.0,39.3,32.2,22.5,0000.0,0009.28,0004.13,0002.98
2022-06-06 10:32:00,,0821.2,4.99,0.00,30.4,29.3,00.0,39.3,32.2,22.5,0000.0,0009.29,0004.13,0002.98
2022-06-06 10:33:00,,0821.3,5.01,0.00,30.4,29.3,00.0,39.3,32.2,22.4,0000.0,0009.37,0004.14,0002.98
2022-06-06 10:34:00,,0821.2,4.99,0.00,30.4,29.3,00.0,39.3,32.2,22.4,0000.0,0009.59,0004.21,0002.96
2022-06-06 10:35:00,,0821.3,5.00,0.00,30.4,29.3,00.0,39.3,32.2,22.3,0000.0,0009.90,0004.23,0002.95
2022-06-06 10:36:00,,0821.3,5.00,0.00,30.4,29.3,00.0,39.3,32.2,22.2,0000.0,0010.46,0004.31,0002.95
2022-06-06 10:37:00,,0821.4,5.01,0.00,30.4,29.3,00.0,39.3,32.2,22.2,0000.0,0010.50,0004.35,0002.93
2022-06-06 10:38:00,,0821.3,4.99,0.00,30.4,29.3,00.0,39.3,32.2,22.3,0000.0,0010.16,0004.27,0002.91
2022-06-06 10:39:00,,0821.4,5.00,0.00,30.4,29.3,00.0,39.3,32.2,22.4,0000.0,0010.00,0004.24,0002.90
2022-06-06 10:40:00,,0821.4,4.99,0.00,30.4,29.3,00.0,39.3,32.2,22.3,0000.0,0009.91,0004.20,0002.89
2022-06-06 10:41:00,,0821.4,5.00,0.00,30.4,29.3,00.0,39.3,32.2,22.2,0000.0,0009.81,0004.19,0002.89
2022-06-06 10:42:00,,0821.4,5.00,0.00,30.4,29.3,00.0,39.3,32.2,22.1,0000.0,0009.61,0004.17,0002.89
2022-06-06 10:43:00,,0821.4,5.00,0.00,30.4,29.3,00.0,39.3,32.2,22.1,0000.0,0009.73,0004.16,0002.89
2022-06-06 10:44:00,,0821.4,5.01,0.00,30.4,29.3,00.0,39.3,32.2,22.0,0000.0,0010.34,0004.21,0002.87
2022-06-06 10:45:00,,0821.4,5.00,0.00,30.4,29.3,00.0,39.3,32.2,22.0,0000.0,0010.23,0004.20,0002.88
2022-06-06 10:46:00,,0821.4,5.00,0.00,30.4,29.3,00.0,39.3,32.2,22.0,0000.0,0010.06,0004.21,0002.87
2022-06-06 10:47:00,,0821.4,5.00,0.00,30.4,29.3,00.0,39.3,32.2,22.0,0000.0,0009.68,0004.21,0002.87
2022-06-06 10:48:00,,0821.4,4.99,0.00,30.4,29.3,00.0,39.3,32.2,22.0,0000.0,0009.56,0004.16,0002.86
2022-06-06 10:49:00,,0821.4,5.01,0.00,30.4,29.3,00.0,39.3,32.2,21.9,0000.0,0009.55,0004.15,0002.85
2022-06-06 10:50:00,,0821.4,4.98,0.00,30.4,29.3,00.0,39.3,32.2,21.9,0000.0,0009.69,0004.18,0002.85
2022-06-06 10:51:00,,0821.4,5.00,0.00,30.4,29.3,00.0,39.3,32.2,21.9,0000.0,0009.79,0004.20,0002.85
2022-06-06 10:52:00,,0821.5,5.00,0.00,30.4,29.3,00.0,39.3,32.2,22.0,0000.0,0009.77,0004.20,0002.84
2022-06-06 10:53:00,,0821.6,4.99,0.00,30.4,29.3,00.0,39.3,32.2,22.1,0000.0,0009.95,0004.23,0002.84
2022-06-06 10:54:00,,0821.6,4.99,0.00,30.4,29.3,00.0,39.3,32.2,22.1,0000.0,0009.97,0004.20,0002.81
2022-06-06 10:55:00,,0821.7,5.00,0.00,30.4,29.3,00.0,39.3,32.2,22.2,0000.0,0010.05,0004.19,0002.82
2022-06-06 10:56:00,,0821.7,5.01,0.00,30.4,29.3,00.0,39.3,32.2,22.2,0000.0,0010.08,0004.17,0002.82
2022-06-06 10:57:00,,0821.7,4.99,0.00,30.4,29.3,00.0,39.3,32.2,22.3,0000.0,0010.06,0004.16,0002.82
2022-06-06 10:58:00,,0821.7,5.00,0.00,30.4,29.3,00.0,39.3,32.2,22.2,0000.0,0009.86,0004.08,0002.82
2022-06-06 10:59:00,,0821.5,5.00,0.00,30.4,29.3,00.0,39.3,32.2,22.2,0000.0,0009.97,0004.13,0002.84
